GW2042 Weather Reports


Display with metric or nautical units.
time (UTC)temp
F
wind
direction
speed
MPH
gust
MPH
rain 1hr
in
rain 24hr
in
rain mn
in
humidity
%
barometer
mb
20260903105019 72 0 0.0 2.0 0.00 0.00 0.00 85 1013.6
20260903104549 72 0 0.0 1.0 0.00 0.00 0.00 85 1013.5
20260903103039 72 0 0.0 0.0 0.00 0.00 0.00 84 1013.4
20260903102519 73 0 0.0 0.0 0.00 0.00 0.00 84 1013.3
20260903102020 73 0 0.0 0.0 0.00 0.00 0.00 83 1013.4
20260903101544 73 0 0.0 0.0 0.00 0.00 0.00 83 1013.4
20260903101018 74 0 0.0 1.0 0.00 0.00 0.00 82 1013.4
20260903100044 74 0 0.0 0.0 0.00 0.00 0.00 83 1013.4
20260903095022 73 0 0.0 0.0 0.00 0.00 0.00 83 1013.5
20260903094539 73 0 0.0 0.0 0.00 0.00 0.00 83 1013.5
20260903094026 73 0 0.0 0.0 0.00 0.00 0.00 83 1013.5
20260903093527 74 0 0.0 0.0 0.00 0.00 0.00 81 1013.6
20260903093038 74 0 0.0 0.0 0.00 0.00 0.00 82 1013.6
20260903092519 74 0 0.0 0.0 0.00 0.00 0.00 82 1013.5
20260903092021 73 0 0.0 0.0 0.00 0.00 0.00 83 1013.5
20260903091550 73 0 0.0 0.0 0.00 0.00 0.00 83 1013.5
20260903091019 73 0 0.0 0.0 0.00 0.00 0.00 82 1013.6
20260903084539 74 0 0.0 0.0 0.00 0.00 0.00 80 1014.0
20260903084021 75 0 0.0 0.0 0.00 0.00 0.00 80 1014.1
20260903083521 75 0 0.0 0.0 0.00 0.00 0.00 80 1014.0
20260903083038 75 0 0.0 1.0 0.00 0.00 0.00 79 1014.0
20260903082518 75 0 0.0 1.0 0.00 0.00 0.00 79 1014.0
20260903082020 75 0 0.0 2.0 0.00 0.00 0.00 79 1014.1
20260903081539 76 0 0.0 2.0 0.00 0.00 0.00 78 1014.2
20260903081016 76 155 0.0 2.0 0.00 0.00 0.00 78 1014.3
20260903075524 75 0 0.0 2.0 0.00 0.00 0.00 78 1014.3
20260903075018 76 155 0.0 2.0 0.00 0.00 0.00 77 1014.3
20260903074540 76 0 0.0 2.0 0.00 0.00 0.00 77 1014.4
20260903074019 77 0 0.0 4.0 0.00 0.00 0.00 77 1014.5
20260903073518 77 148 0.0 4.0 0.00 0.00 0.00 76 1014.6
20260903073055 77 0 0.0 2.0 0.00 0.00 0.00 76 1014.6
20260903070039 78 153 2.0 6.0 0.00 0.00 0.00 74 1014.7
20260903065518 78 155 1.0 7.0 0.00 0.00 0.00 74 1014.9
20260903065017 78 165 2.0 7.0 0.00 0.00 0.00 73 1014.9
20260903064538 78 144 2.0 7.0 0.00 0.00 0.00 73 1014.9
20260903064018 79 147 2.0 7.0 0.00 0.00 0.00 73 1014.9
20260903063518 79 150 2.0 7.0 0.00 0.00 0.00 72 1014.9
20260903063042 79 138 2.0 7.0 0.00 0.00 0.00 72 1014.9
20260903062020 79 154 3.0 8.0 0.00 0.00 0.00 72 1014.9
20260903061021 79 135 3.0 7.0 0.00 0.00 0.00 71 1015.0
20260903060519 79 149 2.0 7.0 0.00 0.00 0.00 71 1015.0
20260903060056 79 136 1.0 7.0 0.00 0.00 0.00 71 1014.9
20260903055520 79 155 1.0 8.0 0.00 0.00 0.00 71 1015.0
20260903055020 80 159 2.0 8.0 0.00 0.00 0.00 70 1014.8
20260903054538 80 130 2.0 7.0 0.00 0.00 0.00 70 1014.9
20260903054018 80 153 2.0 8.0 0.00 0.00 0.00 69 1014.9
20260903053519 80 128 3.0 8.0 0.00 0.00 0.00 68 1014.8
20260903053043 81 131 3.0 9.0 0.00 0.00 0.00 68 1014.8
20260903052519 81 133 3.0 9.0 0.00 0.00 0.00 68 1014.9
20260903050520 81 139 2.0 9.0 0.00 0.00 0.00 67 1014.7
20260903050043 81 131 1.0 7.0 0.00 0.00 0.00 67 1014.8
20260903045517 81 120 1.0 7.0 0.00 0.00 0.00 67 1014.7
20260903045020 81 115 1.0 7.0 0.00 0.00 0.00 67 1014.8
20260903044540 81 133 2.0 7.0 0.00 0.00 0.00 66 1014.7
20260903042540 81 159 2.0 7.0 0.00 0.00 0.00 66 1014.7
20260903042018 82 124 1.0 6.0 0.00 0.00 0.00 65 1014.7
20260903041539 82 124 1.0 6.0 0.00 0.00 0.00 65 1014.9
20260903041022 82 0 0.0 7.0 0.00 0.00 0.00 65 1014.9
20260903040519 82 0 1.0 7.0 0.00 0.00 0.00 64 1015.0
20260903040037 83 134 1.0 7.0 0.00 0.00 0.00 63 1015.0
20260903035518 83 128 2.0 7.0 0.00 0.00 0.00 63 1015.0
20260903032520 84 117 1.0 5.0 0.00 0.00 0.00 61 1014.9
20260903032019 84 154 2.0 8.0 0.00 0.00 0.00 60 1014.9
20260903031021 85 117 3.0 9.0 0.00 0.00 0.00 59 1014.8
20260903030517 85 146 2.0 9.0 0.00 0.00 0.00 58 1014.7
20260903030046 85 133 2.0 8.0 0.00 0.00 0.00 57 1014.7
20260903025520 85 131 2.0 8.0 0.00 0.00 0.00 56 1014.6
20260903025018 85 124 2.0 6.0 0.00 0.00 0.00 55 1014.6
20260903024537 85 114 1.0 6.0 0.00 0.00 0.00 54 1014.5
20260903023039 86 0 1.0 8.0 0.00 0.00 0.00 52 1014.3
20260903022520 87 152 2.0 6.0 0.00 0.00 0.00 52 1014.2
20260903022027 87 0 2.0 9.0 0.00 0.00 0.00 51 1014.1
20260903021546 87 0 2.0 9.0 0.00 0.00 0.00 50 1013.8
20260903021021 86 96 0.0 4.0 0.00 0.00 0.00 50 1013.7
20260903020518 86 0 0.0 2.0 0.00 0.00 0.00 50 1013.7
20260903020039 86 0 0.0 2.0 0.00 0.00 0.00 50 1013.6
20260903014024 87 0 0.0 2.0 0.00 0.00 0.00 49 1013.3
20260903013527 87 0 0.0 1.0 0.00 0.00 0.00 48 1013.2
20260903013039 87 0 0.0 1.0 0.00 0.00 0.00 48 1013.2
20260903012517 87 0 0.0 1.0 0.00 0.00 0.00 48 1013.0
20260903011600 88 0 0.0 0.0 0.00 0.00 0.00 47 1013.2
20260903010043 89 0 0.0 1.0 0.00 0.00 0.00 45 1013.0
20260903005020 90 0 0.0 2.0 0.00 0.00 0.00 44 1013.2
20260903004539 91 0 0.0 2.0 0.00 0.00 0.00 43 1013.0
20260903004020 91 0 0.0 4.0 0.00 0.00 0.00 42 1012.9
20260903003521 92 0 0.0 7.0 0.00 0.00 0.00 42 1012.8
20260903003039 92 100 0.0 7.0 0.00 0.00 0.00 41 1012.8
20260903002517 93 0 1.0 6.0 0.00 0.00 0.00 41 1012.7
20260903001542 94 0 0.0 6.0 0.00 0.00 0.00 39 1012.7
20260903000050 95 66 0.0 6.0 0.00 0.00 0.00 38 1012.7
20260902235021 97 100 2.0 8.0 0.00 0.00 0.00 36 1012.6
20260902234542 97 39 0.0 5.0 0.00 0.00 0.00 36 1012.7
20260902234022 97 78 1.0 6.0 0.00 0.00 0.00 35 1012.6
20260902233520 98 124 2.0 6.0 0.00 0.00 0.00 35 1012.6
20260902233049 98 137 1.0 6.0 0.00 0.00 0.00 35 1012.6
20260902232520 97 101 0.0 7.0 0.00 0.00 0.00 36 1012.6
20260902232017 99 119 2.0 8.0 0.00 0.00 0.00 34 1012.6
20260902231538 100 84 1.0 8.0 0.00 0.00 0.00 33 1012.6
20260902230054 99 98 1.0 6.0 0.00 0.00 0.00 34 1012.5
20260902224539 101 78 1.0 8.0 0.00 0.00 0.00 34 1012.7
20260902223518 101 132 2.0 7.0 0.00 0.00 0.00 33 1012.5
20260902223042 101 0 1.0 5.0 0.00 0.00 0.00 34 1012.6
20260902221626 100 96 1.0 9.0 0.00 0.00 0.00 35 1012.7
20260902220053 99 123 2.0 9.0 0.00 0.00 0.00 35 1012.7
20260902215517 101 77 2.0 10.0 0.00 0.00 0.00 34 1012.7
20260902215020 100 36 1.0 10.0 0.00 0.00 0.00 35 1012.9
20260902214555 101 49 2.0 8.0 0.00 0.00 0.00 34 1012.9
20260902213040 101 150 1.0 8.0 0.00 0.00 0.00 34 1012.9
20260902211539 97 155 1.0 6.0 0.00 0.00 0.00 37 1013.0
20260902211021 97 0 0.0 5.0 0.00 0.00 0.00 38 1013.0
20260902210520 97 0 0.0 5.0 0.00 0.00 0.00 38 1013.1
20260902210038 97 56 1.0 4.0 0.00 0.00 0.00 38 1013.2
20260902205519 97 352 0.0 5.0 0.00 0.00 0.00 37 1013.3
20260902205018 98 0 1.0 7.0 0.00 0.00 0.00 36 1013.4
20260902204543 99 0 1.0 7.0 0.00 0.00 0.00 35 1013.4
20260902203039 100 122 1.0 8.0 0.00 0.00 0.00 35 1013.5
20260902201544 101 335 1.0 9.0 0.00 0.00 0.00 33 1013.7
20260902200518 101 47 2.0 10.0 0.00 0.00 0.00 34 1014.0
20260902200041 99 246 2.0 10.0 0.00 0.00 0.00 36 1014.0
20260902194539 104 115 2.0 8.0 0.00 0.00 0.00 33 1014.4
20260902194020 103 5 2.0 7.0 0.00 0.00 0.00 34 1014.5
20260902193520 101 0 2.0 8.0 0.00 0.00 0.00 34 1014.5
20260902193043 101 10 1.0 9.0 0.00 0.00 0.00 34 1014.6
20260902192520 99 24 0.0 9.0 0.00 0.00 0.00 36 1014.8
20260902192017 99 94 1.0 5.0 0.00 0.00 0.00 37 1014.9
20260902191543 96 73 0.0 4.0 0.00 0.00 0.00 39 1015.0
20260902190043 96 49 1.0 4.0 0.00 0.00 0.00 40 1015.3
20260902184604 100 42 1.0 6.0 0.00 0.00 0.00 37 1015.5
20260902184023 97 320 3.0 5.0 0.00 0.00 0.00 39 1015.6
20260902183042 96 227 1.0 4.0 0.00 0.00 0.00 40 1015.8
20260902182520 96 323 2.0 4.0 0.00 0.00 0.00 40 1015.9
20260902182019 95 327 0.0 7.0 0.00 0.00 0.00 41 1016.0
20260902181542 97 107 1.0 7.0 0.00 0.00 0.00 40 1016.1
20260902181018 97 308 2.0 7.0 0.00 0.00 0.00 40 1016.2
20260902180520 97 355 2.0 7.0 0.00 0.00 0.00 41 1016.1
20260902180037 98 327 2.0 7.0 0.00 0.00 0.00 39 1016.2
20260902175518 97 75 0.0 5.0 0.00 0.00 0.00 41 1016.3
20260902174550 94 331 2.0 5.0 0.00 0.00 0.00 44 1016.5
20260902173105 95 252 1.0 9.0 0.00 0.00 0.00 43 1016.7
20260902172521 96 169 2.0 9.0 0.00 0.00 0.00 42 1016.7
20260902172021 96 336 1.0 7.0 0.00 0.00 0.00 42 1016.8
20260902171543 96 314 2.0 10.0 0.00 0.00 0.00 42 1017.0
20260902171025 95 205 2.0 10.0 0.00 0.00 0.00 42 1017.0
20260902170517 95 24 2.0 8.0 0.00 0.00 0.00 43 1017.0
20260902170038 95 0 3.0 8.0 0.00 0.00 0.00 42 1017.0
20260902165520 95 0 2.0 7.0 0.00 0.00 0.00 43 1017.0
20260902165022 94 219 3.0 7.0 0.00 0.00 0.00 44 1017.1
20260902164538 94 184 1.0 5.0 0.00 0.00 0.00 44 1017.2
20260902163039 94 151 2.0 5.0 0.00 0.00 0.00 45 1017.5
20260902162020 93 158 1.0 6.0 0.00 0.00 0.00 46 1017.5
20260902161539 93 0 1.0 6.0 0.00 0.00 0.00 46 1017.5
20260902161019 93 121 0.0 4.0 0.00 0.00 0.00 47 1017.5
20260902160523 93 57 1.0 5.0 0.00 0.00 0.00 46 1017.5
20260902160053 92 149 1.0 5.0 0.00 0.00 0.00 49 1017.5
20260902154543 92 209 2.0 5.0 0.00 0.00 0.00 51 1017.5
20260902154024 91 157 0.0 4.0 0.00 0.00 0.00 51 1017.5
20260902153520 90 0 0.0 4.0 0.00 0.00 0.00 53 1017.5
20260902153040 90 150 1.0 4.0 0.00 0.00 0.00 53 1017.5
20260902152519 89 270 1.0 4.0 0.00 0.00 0.00 54 1017.6
20260902151538 88 0 0.0 5.0 0.00 0.00 0.00 56 1017.5
20260902150039 88 227 2.0 6.0 0.00 0.00 0.00 56 1017.5
20260902145024 86 242 1.0 6.0 0.00 0.00 0.00 59 1017.4
20260902144537 86 205 1.0 4.0 0.00 0.00 0.00 59 1017.3
20260902144020 85 118 0.0 3.0 0.00 0.00 0.00 60 1017.4
20260902143518 85 148 0.0 3.0 0.00 0.00 0.00 62 1017.4
20260902143040 85 148 1.0 5.0 0.00 0.00 0.00 62 1017.5
20260902141546 84 231 1.0 5.0 0.00 0.00 0.00 63 1017.5
20260902140036 82 0 0.0 4.0 0.00 0.00 0.00 66 1017.5
20260902135520 81 0 0.0 5.0 0.00 0.00 0.00 67 1017.4
20260902135020 81 153 0.0 5.0 0.00 0.00 0.00 67 1017.4
20260902134537 80 133 1.0 5.0 0.00 0.00 0.00 69 1017.3
20260902134018 80 166 1.0 5.0 0.00 0.00 0.00 69 1017.4
20260902133521 80 155 2.0 5.0 0.00 0.00 0.00 70 1017.5
20260902133051 79 146 1.0 7.0 0.00 0.00 0.00 71 1017.4
20260902132021 78 142 1.0 5.0 0.00 0.00 0.00 73 1017.4
20260902131544 77 0 2.0 5.0 0.00 0.00 0.00 74 1017.4
20260902131020 76 0 0.0 4.0 0.00 0.00 0.00 75 1017.3
20260902130521 76 0 1.0 4.0 0.00 0.00 0.00 76 1017.2
20260902130038 75 164 0.0 2.0 0.00 0.00 0.00 77 1017.2
20260902125521 75 0 0.0 1.0 0.00 0.00 0.00 78 1017.2
20260902124549 74 0 0.0 0.0 0.00 0.00 0.00 80 1017.2
20260902123059 73 0 0.0 1.0 0.00 0.00 0.00 80 1017.0
20260902122520 73 0 0.0 0.0 0.00 0.00 0.00 79 1016.8
20260902122018 73 0 0.0 0.0 0.00 0.00 0.00 79 1016.8
20260902121544 73 0 0.0 0.0 0.00 0.00 0.00 79 1016.7
20260902121020 73 0 0.0 0.0 0.00 0.00 0.00 79 1016.7
20260902120518 73 0 0.0 0.0 0.00 0.00 0.00 79 1016.6
20260902120039 74 0 0.0 0.0 0.00 0.00 0.00 77 1016.7
20260902114543 75 0 0.0 0.0 0.00 0.00 0.00 76 1016.7
20260902113520 75 0 0.0 1.0 0.00 0.00 0.00 75 1016.6
20260902113037 75 0 0.0 1.0 0.00 0.00 0.00 75 1016.5
20260902112522 75 0 0.0 2.0 0.00 0.00 0.00 75 1016.4
20260902112020 76 0 0.0 2.0 0.00 0.00 0.00 74 1016.5
20260902111546 76 0 0.0 2.0 0.00 0.00 0.00 74 1016.3
20260902111018 76 0 0.0 2.0 0.00 0.00 0.00 74 1016.4
20260902110521 76 164 0.0 3.0 0.00 0.00 0.00 73 1016.4
20260902110051 76 0 0.0 3.0 0.00 0.00 0.00 73 1016.5
20260902105524 76 159 0.0 3.0 0.00 0.00 0.00 73 1016.6